owner,sensor,date,latitude,longitude,vertical_datum,mass_concentration_of_oxygen_in_sea_water,qcFlag 
SCCF RECON,ioos:station:SCCF:13:1,2016-03-01T00:00:00Z,26.5255,-82.0032,2.55,8.68,1111122 
SCCF RECON,ioos:station:SCCF:13:1,2016-03-01T01:00:00Z,26.5255,-82.0032,2.47,8.85,1111122 
SCCF RECON,ioos:station:SCCF:13:1,2016-03-01T02:00:00Z,26.5255,-82.0032,2.39,8.41,1111122 
SCCF RECON,ioos:station:SCCF:13:1,2016-03-01T03:00:00Z,26.5255,-82.0032,2.32,8.64,1111122 
SCCF RECON,ioos:station:SCCF:13:1,2016-03-01T04:00:00Z,26.5255,-82.0032,2.26,8.57,1111122 
SCCF RECON,ioos:station:SCCF:13:1,2016-03-01T05:00:00Z,26.5255,-82.0032,2.2,8.71,1111122 
SCCF RECON,ioos:station:SCCF:13:1,2016-03-01T06:00:00Z,26.5255,-82.0032,2.18,8.67,1111122 
SCCF RECON,ioos:station:SCCF:13:1,2016-03-01T07:00:00Z,26.5255,-82.0032,2.209,8.57,1111122 
SCCF RECON,ioos:station:SCCF:13:1,2016-03-01T08:00:00Z,26.5255,-82.0032,2.27,8.59,1111122 
SCCF RECON,ioos:station:SCCF:13:1,2016-03-01T09:00:00Z,26.5255,-82.0032,2.34,8.56,1111122 
SCCF RECON,ioos:station:SCCF:13:1,2016-03-01T10:00:00Z,26.5255,-82.0032,2.38,7.57,1111122 
SCCF RECON,ioos:station:SCCF:13:1,2016-03-01T11:00:00Z,26.5255,-82.0032,2.43,7.37,1111122 
SCCF RECON,ioos:station:SCCF:13:1,2016-03-01T12:00:00Z,26.5255,-82.0032,2.46,7.44,1111122 
SCCF RECON,ioos:station:SCCF:13:1,2016-03-01T13:00:00Z,26.5255,-82.0032,2.47,7.45,1111122 
SCCF RECON,ioos:station:SCCF:13:1,2016-03-01T14:00:00Z,26.5255,-82.0032,2.475,7.25,1111122 
SCCF RECON,ioos:station:SCCF:13:1,2016-03-01T15:00:00Z,26.5255,-82.0032,2.46,7.24,1111122 
SCCF RECON,ioos:station:SCCF:13:1,2016-03-01T16:00:00Z,26.5255,-82.0032,2.45,7.32,1111122 
SCCF RECON,ioos:station:SCCF:13:1,2016-03-01T17:00:00Z,26.5255,-82.0032,2.457,6.38,1111122 
SCCF RECON,ioos:station:SCCF:13:1,2016-03-01T18:00:00Z,26.5255,-82.0032,2.489,6.85,1111122 
SCCF RECON,ioos:station:SCCF:13:1,2016-03-01T19:00:00Z,26.5255,-82.0032,2.53,7.23,1111122 
SCCF RECON,ioos:station:SCCF:13:1,2016-03-01T20:00:00Z,26.5255,-82.0032,2.586,7.44,1111122 
SCCF RECON,ioos:station:SCCF:13:1,2016-03-01T21:00:00Z,26.5255,-82.0032,2.639,7.47,1111122 
SCCF RECON,ioos:station:SCCF:13:1,2016-03-01T22:00:00Z,26.5255,-82.0032,2.679,8.44,1111122 
SCCF RECON,ioos:station:SCCF:13:1,2016-03-01T23:00:00Z,26.5255,-82.0032,2.701,8.82,1111122 
SCCF RECON,ioos:station:SCCF:13:1,2016-03-02T00:00:00Z,26.5255,-82.0032,2.673,8.01,1111122 
SCCF RECON,ioos:station:SCCF:13:1,2016-03-02T01:00:00Z,26.5255,-82.0032,2.62,8.34,1111122 
SCCF RECON,ioos:station:SCCF:13:1,2016-03-02T02:00:00Z,26.5255,-82.0032,2.514,7.97,1111122 
SCCF RECON,ioos:station:SCCF:13:1,2016-03-02T03:00:00Z,26.5255,-82.0032,2.43,8.34,1111122 
SCCF RECON,ioos:station:SCCF:13:1,2016-03-02T04:00:00Z,26.5255,-82.0032,2.36,8.45,1111122 
SCCF RECON,ioos:station:SCCF:13:1,2016-03-02T05:00:00Z,26.5255,-82.0032,2.29,8.61,1111122 
SCCF RECON,ioos:station:SCCF:13:1,2016-03-02T06:00:00Z,26.5255,-82.0032,2.23,8.49,1111122 
SCCF RECON,ioos:station:SCCF:13:1,2016-03-02T07:00:00Z,26.5255,-82.0032,2.191,8.4,1111122 
SCCF RECON,ioos:station:SCCF:13:1,2016-03-02T08:00:00Z,26.5255,-82.0032,2.2,8.34,1111122 
SCCF RECON,ioos:station:SCCF:13:1,2016-03-02T09:00:00Z,26.5255,-82.0032,2.27,8.43,1111122 
SCCF RECON,ioos:station:SCCF:13:1,2016-03-02T10:00:00Z,26.5255,-82.0032,2.37,8.41,1111122 
SCCF RECON,ioos:station:SCCF:13:1,2016-03-02T11:00:00Z,26.5255,-82.0032,2.4,7.64,1111122 
SCCF RECON,ioos:station:SCCF:13:1,2016-03-02T12:00:00Z,26.5255,-82.0032,2.43,7.24,1111122 
SCCF RECON,ioos:station:SCCF:13:1,2016-03-02T13:00:00Z,26.5255,-82.0032,2.45,7.15,1111122 
SCCF RECON,ioos:station:SCCF:13:1,2016-03-02T14:00:00Z,26.5255,-82.0032,2.46,6.96,1111122 
SCCF RECON,ioos:station:SCCF:13:1,2016-03-02T15:00:00Z,26.5255,-82.0032,2.5,7.02,1111122 
SCCF RECON,ioos:station:SCCF:13:1,2016-03-02T16:00:00Z,26.5255,-82.0032,2.48,6.92,1111122 
SCCF RECON,ioos:station:SCCF:13:1,2016-03-02T17:00:00Z,26.5255,-82.0032,2.44,7.14,1111122 
SCCF RECON,ioos:station:SCCF:13:1,2016-03-02T18:00:00Z,26.5255,-82.0032,2.4,7.18,1111122 
SCCF RECON,ioos:station:SCCF:13:1,2016-03-02T19:00:00Z,26.5255,-82.0032,2.436,6.26,1111122 
SCCF RECON,ioos:station:SCCF:13:1,2016-03-02T20:00:00Z,26.5255,-82.0032,2.482,6.41,1111122 
SCCF RECON,ioos:station:SCCF:13:1,2016-03-02T21:00:00Z,26.5255,-82.0032,2.5,6.71,1111122 
SCCF RECON,ioos:station:SCCF:13:1,2016-03-02T22:00:00Z,26.5255,-82.0032,2.53,7.27,1111122 
SCCF RECON,ioos:station:SCCF:13:1,2016-03-02T23:00:00Z,26.5255,-82.0032,2.571,7.25,1111122 
SCCF RECON,ioos:station:SCCF:13:1,2016-03-03T00:00:00Z,26.5255,-82.0032,2.59,7.06,1111122 
SCCF RECON,ioos:station:SCCF:13:1,2016-03-03T01:00:00Z,26.5255,-82.0032,2.59,6.69,1111122 
SCCF RECON,ioos:station:SCCF:13:1,2016-03-03T02:00:00Z,26.5255,-82.0032,2.56,6.86,1111122 
SCCF RECON,ioos:station:SCCF:13:1,2016-03-03T03:00:00Z,26.5255,-82.0032,2.49,7.09,1111122 
SCCF RECON,ioos:station:SCCF:13:1,2016-03-03T04:00:00Z,26.5255,-82.0032,2.39,7.35,1111122 
SCCF RECON,ioos:station:SCCF:13:1,2016-03-03T05:00:00Z,26.5255,-82.0032,2.29,7.79,1111122 
SCCF RECON,ioos:station:SCCF:13:1,2016-03-03T06:00:00Z,26.5255,-82.0032,2.22,8.02,1111122 
SCCF RECON,ioos:station:SCCF:13:1,2016-03-03T07:00:00Z,26.5255,-82.0032,2.15,8.43,1111122 
SCCF RECON,ioos:station:SCCF:13:1,2016-03-03T08:00:00Z,26.5255,-82.0032,2.11,8.56,1111122 
SCCF RECON,ioos:station:SCCF:13:1,2016-03-03T09:00:00Z,26.5255,-82.0032,2.13,8.43,1111122 
SCCF RECON,ioos:station:SCCF:13:1,2016-03-03T10:00:00Z,26.5255,-82.0032,2.19,8.27,1111122 
SCCF RECON,ioos:station:SCCF:13:1,2016-03-03T11:00:00Z,26.5255,-82.0032,2.25,8.23,1111122 
SCCF RECON,ioos:station:SCCF:13:1,2016-03-03T12:00:00Z,26.5255,-82.0032,2.322,8.26,1111122 
SCCF RECON,ioos:station:SCCF:13:1,2016-03-03T13:00:00Z,26.5255,-82.0032,2.39,6.83,1111122 
SCCF RECON,ioos:station:SCCF:13:1,2016-03-03T14:00:00Z,26.5255,-82.0032,2.45,6.64,1111122 
SCCF RECON,ioos:station:SCCF:13:1,2016-03-03T15:00:00Z,26.5255,-82.0032,2.479,6.82,1111122 
SCCF RECON,ioos:station:SCCF:13:1,2016-03-03T16:00:00Z,26.5255,-82.0032,2.48,6.88,1111122 
SCCF RECON,ioos:station:SCCF:13:1,2016-03-03T17:00:00Z,26.5255,-82.0032,2.47,6.99,1111122 
SCCF RECON,ioos:station:SCCF:13:1,2016-03-03T18:00:00Z,26.5255,-82.0032,2.455,6.75,1111122 
SCCF RECON,ioos:station:SCCF:13:1,2016-03-03T19:00:00Z,26.5255,-82.0032,2.432,7.02,1111122 
SCCF RECON,ioos:station:SCCF:13:1,2016-03-03T20:00:00Z,26.5255,-82.0032,2.415,7.03,1111122 
SCCF RECON,ioos:station:SCCF:13:1,2016-03-03T21:00:00Z,26.5255,-82.0032,2.41,7.11,1111122 
SCCF RECON,ioos:station:SCCF:13:1,2016-03-03T22:00:00Z,26.5255,-82.0032,2.488,6.26,1111122 
SCCF RECON,ioos:station:SCCF:13:1,2016-03-03T23:00:00Z,26.5255,-82.0032,2.571,6.81,1111122 
SCCF RECON,ioos:station:SCCF:13:1,2016-03-04T00:00:00Z,26.5255,-82.0032,2.615,6.9,1111122 
SCCF RECON,ioos:station:SCCF:13:1,2016-03-04T01:00:00Z,26.5255,-82.0032,2.64,6.87,1111122 
SCCF RECON,ioos:station:SCCF:13:1,2016-03-04T02:00:00Z,26.5255,-82.0032,2.64,6.82,1111122 
SCCF RECON,ioos:station:SCCF:13:1,2016-03-04T03:00:00Z,26.5255,-82.0032,2.58,6.49,1111122 
SCCF RECON,ioos:station:SCCF:13:1,2016-03-04T04:00:00Z,26.5255,-82.0032,2.46,7.05,1111122 
SCCF RECON,ioos:station:SCCF:13:1,2016-03-04T05:00:00Z,26.5255,-82.0032,2.367,7.46,1111122 
SCCF RECON,ioos:station:SCCF:13:1,2016-03-04T06:00:00Z,26.5255,-82.0032,2.3,7.75,1111122 
SCCF RECON,ioos:station:SCCF:13:1,2016-03-04T07:00:00Z,26.5255,-82.0032,2.24,7.95,1111122 
SCCF RECON,ioos:station:SCCF:13:1,2016-03-04T08:00:00Z,26.5255,-82.0032,2.168,8.02,1111122 
SCCF RECON,ioos:station:SCCF:13:1,2016-03-04T09:00:00Z,26.5255,-82.0032,2.11,7.83,1111122 
SCCF RECON,ioos:station:SCCF:13:1,2016-03-04T10:00:00Z,26.5255,-82.0032,2.1,7.73,1111122 
SCCF RECON,ioos:station:SCCF:13:1,2016-03-04T11:00:00Z,26.5255,-82.0032,2.19,7.71,1111122 
SCCF RECON,ioos:station:SCCF:13:1,2016-03-04T12:00:00Z,26.5255,-82.0032,2.29,7.72,1111122 
SCCF RECON,ioos:station:SCCF:13:1,2016-03-04T13:00:00Z,26.5255,-82.0032,2.37,7.39,1111122 
SCCF RECON,ioos:station:SCCF:13:1,2016-03-04T14:00:00Z,26.5255,-82.0032,2.45,6.79,1111122 
SCCF RECON,ioos:station:SCCF:13:1,2016-03-04T15:00:00Z,26.5255,-82.0032,2.49,6.95,1111122 
SCCF RECON,ioos:station:SCCF:13:1,2016-03-04T16:00:00Z,26.5255,-82.0032,2.5,7.01,1111122 
SCCF RECON,ioos:station:SCCF:13:1,2016-03-04T17:00:00Z,26.5255,-82.0032,2.46,6.99,1111122 
SCCF RECON,ioos:station:SCCF:13:1,2016-03-04T18:00:00Z,26.5255,-82.0032,2.502,6.61,1111122 
SCCF RECON,ioos:station:SCCF:13:1,2016-03-04T19:00:00Z,26.5255,-82.0032,2.51,6.43,1111122 
SCCF RECON,ioos:station:SCCF:13:1,2016-03-04T20:00:00Z,26.5255,-82.0032,2.447,6.77,1111122 
SCCF RECON,ioos:station:SCCF:13:1,2016-03-04T21:00:00Z,26.5255,-82.0032,2.369,7.6,1111122 
SCCF RECON,ioos:station:SCCF:13:1,2016-03-04T22:00:00Z,26.5255,-82.0032,2.351,7.55,1111122 
SCCF RECON,ioos:station:SCCF:13:1,2016-03-04T23:00:00Z,26.5255,-82.0032,2.42,7.04,1111122 
SCCF RECON,ioos:station:SCCF:13:1,2016-03-05T00:00:00Z,26.5255,-82.0032,2.49,6.03,1111122 
SCCF RECON,ioos:station:SCCF:13:1,2016-03-05T01:00:00Z,26.5255,-82.0032,2.57,6.48,1111122 
SCCF RECON,ioos:station:SCCF:13:1,2016-03-05T02:00:00Z,26.5255,-82.0032,2.61,6.78,1111122 
SCCF RECON,ioos:station:SCCF:13:1,2016-03-05T03:00:00Z,26.5255,-82.0032,2.59,6.55,1111122 
SCCF RECON,ioos:station:SCCF:13:1,2016-03-05T04:00:00Z,26.5255,-82.0032,2.55,6.23,1111122 
SCCF RECON,ioos:station:SCCF:13:1,2016-03-05T05:00:00Z,26.5255,-82.0032,2.45,6.72,1111122 
SCCF RECON,ioos:station:SCCF:13:1,2016-03-05T06:00:00Z,26.5255,-82.0032,2.331,6.82,1111122 
SCCF RECON,ioos:station:SCCF:13:1,2016-03-05T07:00:00Z,26.5255,-82.0032,2.25,7.2,1111122 
SCCF RECON,ioos:station:SCCF:13:1,2016-03-05T08:00:00Z,26.5255,-82.0032,2.16,7.41,1111122 
SCCF RECON,ioos:station:SCCF:13:1,2016-03-05T09:00:00Z,26.5255,-82.0032,2.08,7.68,1111122 
SCCF RECON,ioos:station:SCCF:13:1,2016-03-05T10:00:00Z,26.5255,-82.0032,2.029,7.67,1111122 
SCCF RECON,ioos:station:SCCF:13:1,2016-03-05T11:00:00Z,26.5255,-82.0032,2.03,7.67,1111122 
SCCF RECON,ioos:station:SCCF:13:1,2016-03-05T12:00:00Z,26.5255,-82.0032,2.14,7.75,1111122 
SCCF RECON,ioos:station:SCCF:13:1,2016-03-05T13:00:00Z,26.5255,-82.0032,2.25,7.84,1111122 
SCCF RECON,ioos:station:SCCF:13:1,2016-03-05T14:00:00Z,26.5255,-82.0032,2.36,7.56,1111122 
SCCF RECON,ioos:station:SCCF:13:1,2016-03-05T15:00:00Z,26.5255,-82.0032,2.446,6.89,1111122 
SCCF RECON,ioos:station:SCCF:13:1,2016-03-05T16:00:00Z,26.5255,-82.0032,2.513,6.77,1111122 
SCCF RECON,ioos:station:SCCF:13:1,2016-03-05T17:00:00Z,26.5255,-82.0032,2.532,7.03,1111122 
SCCF RECON,ioos:station:SCCF:13:1,2016-03-05T18:00:00Z,26.5255,-82.0032,2.52,7.04,1111122 
SCCF RECON,ioos:station:SCCF:13:1,2016-03-05T19:00:00Z,26.5255,-82.0032,2.47,7.15,1111122 
SCCF RECON,ioos:station:SCCF:13:1,2016-03-05T20:00:00Z,26.5255,-82.0032,2.41,6.99,1111122 
SCCF RECON,ioos:station:SCCF:13:1,2016-03-05T21:00:00Z,26.5255,-82.0032,2.342,7.52,1111122 
SCCF RECON,ioos:station:SCCF:13:1,2016-03-05T22:00:00Z,26.5255,-82.0032,2.318,7.27,1111122 
SCCF RECON,ioos:station:SCCF:13:1,2016-03-05T23:00:00Z,26.5255,-82.0032,2.39,7.14,1111122 
SCCF RECON,ioos:station:SCCF:13:1,2016-03-06T00:00:00Z,26.5255,-82.0032,2.47,6.51,1111122 
SCCF RECON,ioos:station:SCCF:13:1,2016-03-06T01:00:00Z,26.5255,-82.0032,2.555,6.99,1111122 
SCCF RECON,ioos:station:SCCF:13:1,2016-03-06T02:00:00Z,26.5255,-82.0032,2.603,7.07,1111122 
SCCF RECON,ioos:station:SCCF:13:1,2016-03-06T03:00:00Z,26.5255,-82.0032,2.62,7.1,1111122 
SCCF RECON,ioos:station:SCCF:13:1,2016-03-06T04:00:00Z,26.5255,-82.0032,2.63,6.64,1111122 
SCCF RECON,ioos:station:SCCF:13:1,2016-03-06T05:00:00Z,26.5255,-82.0032,2.572,6.55,1111122 
SCCF RECON,ioos:station:SCCF:13:1,2016-03-06T06:00:00Z,26.5255,-82.0032,2.471,6.67,1111122 
SCCF RECON,ioos:station:SCCF:13:1,2016-03-06T07:00:00Z,26.5255,-82.0032,2.35,6.79,1111122 
SCCF RECON,ioos:station:SCCF:13:1,2016-03-06T08:00:00Z,26.5255,-82.0032,2.248,7.26,1111122 
SCCF RECON,ioos:station:SCCF:13:1,2016-03-06T09:00:00Z,26.5255,-82.0032,2.16,7.36,1111122 
SCCF RECON,ioos:station:SCCF:13:1,2016-03-06T10:00:00Z,26.5255,-82.0032,2.07,7.67,1111122 
SCCF RECON,ioos:station:SCCF:13:1,2016-03-06T11:00:00Z,26.5255,-82.0032,2.02,7.53,1111122 
SCCF RECON,ioos:station:SCCF:13:1,2016-03-06T12:00:00Z,26.5255,-82.0032,2.03,7.52,1111122 
SCCF RECON,ioos:station:SCCF:13:1,2016-03-06T13:00:00Z,26.5255,-82.0032,2.119,7.61,1111122 
SCCF RECON,ioos:station:SCCF:13:1,2016-03-06T14:00:00Z,26.5255,-82.0032,2.2,7.77,1111122 
SCCF RECON,ioos:station:SCCF:13:1,2016-03-06T15:00:00Z,26.5255,-82.0032,2.32,7.92,1111122 
SCCF RECON,ioos:station:SCCF:13:1,2016-03-06T16:00:00Z,26.5255,-82.0032,2.415,7.0,1111122 
SCCF RECON,ioos:station:SCCF:13:1,2016-03-06T17:00:00Z,26.5255,-82.0032,2.438,6.72,1111122 
SCCF RECON,ioos:station:SCCF:13:1,2016-03-06T18:00:00Z,26.5255,-82.0032,2.417,6.86,1111122 
SCCF RECON,ioos:station:SCCF:13:1,2016-03-06T19:00:00Z,26.5255,-82.0032,2.342,6.67,1111122 
SCCF RECON,ioos:station:SCCF:13:1,2016-03-06T20:00:00Z,26.5255,-82.0032,2.284,7.43,1111122 
SCCF RECON,ioos:station:SCCF:13:1,2016-03-06T21:00:00Z,26.5255,-82.0032,2.241,7.47,1111122 
SCCF RECON,ioos:station:SCCF:13:1,2016-03-06T22:00:00Z,26.5255,-82.0032,2.193,7.85,1111122 
SCCF RECON,ioos:station:SCCF:13:1,2016-03-06T23:00:00Z,26.5255,-82.0032,2.21,8.39,1111122 
SCCF RECON,ioos:station:SCCF:13:1,2016-03-07T00:00:00Z,26.5255,-82.0032,2.29,8.17,1111122 
SCCF RECON,ioos:station:SCCF:13:1,2016-03-07T01:00:00Z,26.5255,-82.0032,2.42,6.88,1111122 
SCCF RECON,ioos:station:SCCF:13:1,2016-03-07T02:00:00Z,26.5255,-82.0032,2.532,7.03,1111122 
SCCF RECON,ioos:station:SCCF:13:1,2016-03-07T03:00:00Z,26.5255,-82.0032,2.595,7.15,1111122 
SCCF RECON,ioos:station:SCCF:13:1,2016-03-07T04:00:00Z,26.5255,-82.0032,2.629,7.21,1111122 
SCCF RECON,ioos:station:SCCF:13:1,2016-03-07T05:00:00Z,26.5255,-82.0032,2.625,7.24,1111122 
SCCF RECON,ioos:station:SCCF:13:1,2016-03-07T06:00:00Z,26.5255,-82.0032,2.54,7.11,1111122 
SCCF RECON,ioos:station:SCCF:13:1,2016-03-07T07:00:00Z,26.5255,-82.0032,2.43,7.02,1111122 
SCCF RECON,ioos:station:SCCF:13:1,2016-03-07T08:00:00Z,26.5255,-82.0032,2.3,6.83,1111122 
SCCF RECON,ioos:station:SCCF:13:1,2016-03-07T09:00:00Z,26.5255,-82.0032,2.2,7.63,1111122 
SCCF RECON,ioos:station:SCCF:13:1,2016-03-07T10:00:00Z,26.5255,-82.0032,2.118,7.49,1111122 
SCCF RECON,ioos:station:SCCF:13:1,2016-03-07T11:00:00Z,26.5255,-82.0032,2.03,7.62,1111122 
SCCF RECON,ioos:station:SCCF:13:1,2016-03-07T12:00:00Z,26.5255,-82.0032,2.022,7.54,1111122 
SCCF RECON,ioos:station:SCCF:13:1,2016-03-07T13:00:00Z,26.5255,-82.0032,2.178,7.59,1111122 
SCCF RECON,ioos:station:SCCF:13:1,2016-03-07T14:00:00Z,26.5255,-82.0032,2.33,7.69,1111122 
SCCF RECON,ioos:station:SCCF:13:1,2016-03-07T15:00:00Z,26.5255,-82.0032,2.429,7.26,1111122 
SCCF RECON,ioos:station:SCCF:13:1,2016-03-07T16:00:00Z,26.5255,-82.0032,2.509,7.16,1111122 
SCCF RECON,ioos:station:SCCF:13:1,2016-03-07T17:00:00Z,26.5255,-82.0032,2.577,7.23,1111122 
SCCF RECON,ioos:station:SCCF:13:1,2016-03-07T18:00:00Z,26.5255,-82.0032,2.604,7.48,1111122 
SCCF RECON,ioos:station:SCCF:13:1,2016-03-07T19:00:00Z,26.5255,-82.0032,2.56,7.66,1111122 
SCCF RECON,ioos:station:SCCF:13:1,2016-03-07T20:00:00Z,26.5255,-82.0032,2.51,7.92,1111122 
SCCF RECON,ioos:station:SCCF:13:1,2016-03-07T21:00:00Z,26.5255,-82.0032,2.428,7.79,1111122 
SCCF RECON,ioos:station:SCCF:13:1,2016-03-07T22:00:00Z,26.5255,-82.0032,2.32,7.42,1111122 
SCCF RECON,ioos:station:SCCF:13:1,2016-03-07T23:00:00Z,26.5255,-82.0032,2.291,7.96,1111122 
SCCF RECON,ioos:station:SCCF:13:1,2016-03-08T00:00:00Z,26.5255,-82.0032,2.35,7.89,1111122 
SCCF RECON,ioos:station:SCCF:13:1,2016-03-08T01:00:00Z,26.5255,-82.0032,2.464,7.31,1111122 
SCCF RECON,ioos:station:SCCF:13:1,2016-03-08T02:00:00Z,26.5255,-82.0032,2.6,7.53,1111122 
SCCF RECON,ioos:station:SCCF:13:1,2016-03-08T03:00:00Z,26.5255,-82.0032,2.7,7.57,1111122 
SCCF RECON,ioos:station:SCCF:13:1,2016-03-08T04:00:00Z,26.5255,-82.0032,2.789,7.47,1111122 
SCCF RECON,ioos:station:SCCF:13:1,2016-03-08T05:00:00Z,26.5255,-82.0032,2.836,7.47,1111122 
SCCF RECON,ioos:station:SCCF:13:1,2016-03-08T06:00:00Z,26.5255,-82.0032,2.81,7.44,1111122 
SCCF RECON,ioos:station:SCCF:13:1,2016-03-08T07:00:00Z,26.5255,-82.0032,2.69,7.32,1111122 
SCCF RECON,ioos:station:SCCF:13:1,2016-03-08T08:00:00Z,26.5255,-82.0032,2.55,7.09,1111122 
SCCF RECON,ioos:station:SCCF:13:1,2016-03-08T09:00:00Z,26.5255,-82.0032,2.421,7.14,1111122 
SCCF RECON,ioos:station:SCCF:13:1,2016-03-08T10:00:00Z,26.5255,-82.0032,2.34,7.38,1111122 
SCCF RECON,ioos:station:SCCF:13:1,2016-03-08T11:00:00Z,26.5255,-82.0032,2.25,7.38,1111122 
SCCF RECON,ioos:station:SCCF:13:1,2016-03-08T12:00:00Z,26.5255,-82.0032,2.172,7.36,1111122 
SCCF RECON,ioos:station:SCCF:13:1,2016-03-08T13:00:00Z,26.5255,-82.0032,2.17,7.32,1111122 
SCCF RECON,ioos:station:SCCF:13:1,2016-03-08T14:00:00Z,26.5255,-82.0032,2.32,7.44,1111122 
SCCF RECON,ioos:station:SCCF:13:1,2016-03-08T15:00:00Z,26.5255,-82.0032,2.496,7.29,1111122 
SCCF RECON,ioos:station:SCCF:13:1,2016-03-08T16:00:00Z,26.5255,-82.0032,2.582,7.24,1111122 
SCCF RECON,ioos:station:SCCF:13:1,2016-03-08T17:00:00Z,26.5255,-82.0032,2.656,7.16,1111122 
SCCF RECON,ioos:station:SCCF:13:1,2016-03-08T18:00:00Z,26.5255,-82.0032,2.7,7.47,1111122 
SCCF RECON,ioos:station:SCCF:13:1,2016-03-08T19:00:00Z,26.5255,-82.0032,2.68,7.51,1111122 
SCCF RECON,ioos:station:SCCF:13:1,2016-03-08T20:00:00Z,26.5255,-82.0032,2.61,7.64,1111122 
SCCF RECON,ioos:station:SCCF:13:1,2016-03-08T21:00:00Z,26.5255,-82.0032,2.478,7.58,1111122 
SCCF RECON,ioos:station:SCCF:13:1,2016-03-08T22:00:00Z,26.5255,-82.0032,2.37,7.29,1111122 
SCCF RECON,ioos:station:SCCF:13:1,2016-03-08T23:00:00Z,26.5255,-82.0032,2.3,7.67,1111122 
SCCF RECON,ioos:station:SCCF:13:1,2016-03-09T00:00:00Z,26.5255,-82.0032,2.27,7.5,1111122 
SCCF RECON,ioos:station:SCCF:13:1,2016-03-09T01:00:00Z,26.5255,-82.0032,2.317,7.52,1111122 
SCCF RECON,ioos:station:SCCF:13:1,2016-03-09T02:00:00Z,26.5255,-82.0032,2.483,7.55,1111122 
SCCF RECON,ioos:station:SCCF:13:1,2016-03-09T03:00:00Z,26.5255,-82.0032,2.613,7.19,1111122 
SCCF RECON,ioos:station:SCCF:13:1,2016-03-09T04:00:00Z,26.5255,-82.0032,2.712,7.33,1111122 
SCCF RECON,ioos:station:SCCF:13:1,2016-03-09T05:00:00Z,26.5255,-82.0032,2.807,7.18,1111122 
SCCF RECON,ioos:station:SCCF:13:1,2016-03-09T06:00:00Z,26.5255,-82.0032,2.851,7.23,1111122 
SCCF RECON,ioos:station:SCCF:13:1,2016-03-09T07:00:00Z,26.5255,-82.0032,2.826,7.09,1111122 
SCCF RECON,ioos:station:SCCF:13:1,2016-03-09T08:00:00Z,26.5255,-82.0032,2.73,6.99,1111122 
SCCF RECON,ioos:station:SCCF:13:1,2016-03-09T09:00:00Z,26.5255,-82.0032,2.6,6.81,1111122 
SCCF RECON,ioos:station:SCCF:13:1,2016-03-09T10:00:00Z,26.5255,-82.0032,2.49,6.74,1111122 
SCCF RECON,ioos:station:SCCF:13:1,2016-03-09T11:00:00Z,26.5255,-82.0032,2.4,7.08,1111122 
SCCF RECON,ioos:station:SCCF:13:1,2016-03-09T12:00:00Z,26.5255,-82.0032,2.321,7.11,1111122 
SCCF RECON,ioos:station:SCCF:13:1,2016-03-09T13:00:00Z,26.5255,-82.0032,2.28,7.18,1111122 
SCCF RECON,ioos:station:SCCF:13:1,2016-03-09T14:00:00Z,26.5255,-82.0032,2.368,7.19,1111122 
SCCF RECON,ioos:station:SCCF:13:1,2016-03-09T15:00:00Z,26.5255,-82.0032,2.53,7.13,1111122 
SCCF RECON,ioos:station:SCCF:13:1,2016-03-09T16:00:00Z,26.5255,-82.0032,2.67,6.95,1111122 
SCCF RECON,ioos:station:SCCF:13:1,2016-03-09T17:00:00Z,26.5255,-82.0032,2.746,6.89,1111122 
SCCF RECON,ioos:station:SCCF:13:1,2016-03-09T18:00:00Z,26.5255,-82.0032,2.809,7.18,1111122 
SCCF RECON,ioos:station:SCCF:13:1,2016-03-09T19:00:00Z,26.5255,-82.0032,2.829,7.15,1111122 
SCCF RECON,ioos:station:SCCF:13:1,2016-03-09T20:00:00Z,26.5255,-82.0032,2.79,7.12,1111122 
SCCF RECON,ioos:station:SCCF:13:1,2016-03-09T21:00:00Z,26.5255,-82.0032,2.67,7.0,1111122 
SCCF RECON,ioos:station:SCCF:13:1,2016-03-09T22:00:00Z,26.5255,-82.0032,2.539,7.06,1111122 
SCCF RECON,ioos:station:SCCF:13:1,2016-03-09T23:00:00Z,26.5255,-82.0032,2.44,7.43,1111122 
SCCF RECON,ioos:station:SCCF:13:1,2016-03-10T00:00:00Z,26.5255,-82.0032,2.36,7.26,1111122 
SCCF RECON,ioos:station:SCCF:13:1,2016-03-10T01:00:00Z,26.5255,-82.0032,2.31,7.24,1111122 
SCCF RECON,ioos:station:SCCF:13:1,2016-03-10T02:00:00Z,26.5255,-82.0032,2.35,7.4,1111122 
SCCF RECON,ioos:station:SCCF:13:1,2016-03-10T03:00:00Z,26.5255,-82.0032,2.53,7.41,1111122 
SCCF RECON,ioos:station:SCCF:13:1,2016-03-10T04:00:00Z,26.5255,-82.0032,2.674,6.9,1111122 
SCCF RECON,ioos:station:SCCF:13:1,2016-03-10T05:00:00Z,26.5255,-82.0032,2.756,6.94,1111122 
SCCF RECON,ioos:station:SCCF:13:1,2016-03-10T06:00:00Z,26.5255,-82.0032,2.83,6.81,1111122 
SCCF RECON,ioos:station:SCCF:13:1,2016-03-10T07:00:00Z,26.5255,-82.0032,2.85,6.85,1111122 
SCCF RECON,ioos:station:SCCF:13:1,2016-03-10T08:00:00Z,26.5255,-82.0032,2.82,6.82,1111122 
SCCF RECON,ioos:station:SCCF:13:1,2016-03-10T09:00:00Z,26.5255,-82.0032,2.7,6.77,1111122 
SCCF RECON,ioos:station:SCCF:13:1,2016-03-10T10:00:00Z,26.5255,-82.0032,2.56,6.53,1111122 
SCCF RECON,ioos:station:SCCF:13:1,2016-03-10T11:00:00Z,26.5255,-82.0032,2.46,6.91,1111122 
SCCF RECON,ioos:station:SCCF:13:1,2016-03-10T12:00:00Z,26.5255,-82.0032,2.379,6.96,1111122 
SCCF RECON,ioos:station:SCCF:13:1,2016-03-10T13:00:00Z,26.5255,-82.0032,2.302,7.06,1111122 
SCCF RECON,ioos:station:SCCF:13:1,2016-03-10T14:00:00Z,26.5255,-82.0032,2.29,7.08,1111122 
SCCF RECON,ioos:station:SCCF:13:1,2016-03-10T15:00:00Z,26.5255,-82.0032,2.436,7.22,1111122 
SCCF RECON,ioos:station:SCCF:13:1,2016-03-10T16:00:00Z,26.5255,-82.0032,2.6,7.03,1111122 
SCCF RECON,ioos:station:SCCF:13:1,2016-03-10T17:00:00Z,26.5255,-82.0032,2.689,6.9,1111122 
SCCF RECON,ioos:station:SCCF:13:1,2016-03-10T18:00:00Z,26.5255,-82.0032,2.77,6.97,1111122 
SCCF RECON,ioos:station:SCCF:13:1,2016-03-10T19:00:00Z,26.5255,-82.0032,2.83,7.07,1111122 
SCCF RECON,ioos:station:SCCF:13:1,2016-03-10T20:00:00Z,26.5255,-82.0032,2.831,6.98,1111122 
SCCF RECON,ioos:station:SCCF:13:1,2016-03-10T21:00:00Z,26.5255,-82.0032,2.75,7.0,1111122 
SCCF RECON,ioos:station:SCCF:13:1,2016-03-10T22:00:00Z,26.5255,-82.0032,2.628,6.84,1111122 
SCCF RECON,ioos:station:SCCF:13:1,2016-03-10T23:00:00Z,26.5255,-82.0032,2.519,6.97,1111122 
SCCF RECON,ioos:station:SCCF:13:1,2016-03-11T00:00:00Z,26.5255,-82.0032,2.42,7.01,1111122 
SCCF RECON,ioos:station:SCCF:13:1,2016-03-11T01:00:00Z,26.5255,-82.0032,2.338,7.07,1111122 
SCCF RECON,ioos:station:SCCF:13:1,2016-03-11T02:00:00Z,26.5255,-82.0032,2.27,7.2,1111122 
SCCF RECON,ioos:station:SCCF:13:1,2016-03-11T03:00:00Z,26.5255,-82.0032,2.33,7.26,1111122 
SCCF RECON,ioos:station:SCCF:13:1,2016-03-11T04:00:00Z,26.5255,-82.0032,2.525,7.27,1111122 
SCCF RECON,ioos:station:SCCF:13:1,2016-03-11T05:00:00Z,26.5255,-82.0032,2.66,6.64,1111122 
SCCF RECON,ioos:station:SCCF:13:1,2016-03-11T06:00:00Z,26.5255,-82.0032,2.75,6.67,1111122 
SCCF RECON,ioos:station:SCCF:13:1,2016-03-11T07:00:00Z,26.5255,-82.0032,2.82,6.66,1111122 
SCCF RECON,ioos:station:SCCF:13:1,2016-03-11T08:00:00Z,26.5255,-82.0032,2.83,6.67,1111122 
SCCF RECON,ioos:station:SCCF:13:1,2016-03-11T09:00:00Z,26.5255,-82.0032,2.764,6.59,1111122 
SCCF RECON,ioos:station:SCCF:13:1,2016-03-11T10:00:00Z,26.5255,-82.0032,2.63,6.49,1111122 
SCCF RECON,ioos:station:SCCF:13:1,2016-03-11T11:00:00Z,26.5255,-82.0032,2.5,6.32,1111122 
SCCF RECON,ioos:station:SCCF:13:1,2016-03-11T12:00:00Z,26.5255,-82.0032,2.42,6.78,1111122 
SCCF RECON,ioos:station:SCCF:13:1,2016-03-11T13:00:00Z,26.5255,-82.0032,2.348,6.83,1111122 
SCCF RECON,ioos:station:SCCF:13:1,2016-03-11T14:00:00Z,26.5255,-82.0032,2.272,6.99,1111122 
SCCF RECON,ioos:station:SCCF:13:1,2016-03-11T15:00:00Z,26.5255,-82.0032,2.295,7.12,1111122 
SCCF RECON,ioos:station:SCCF:13:1,2016-03-11T16:00:00Z,26.5255,-82.0032,2.49,7.03,1111122 
SCCF RECON,ioos:station:SCCF:13:1,2016-03-11T17:00:00Z,26.5255,-82.0032,2.616,6.88,1111122 
SCCF RECON,ioos:station:SCCF:13:1,2016-03-11T18:00:00Z,26.5255,-82.0032,2.656,6.64,1111122 
SCCF RECON,ioos:station:SCCF:13:1,2016-03-11T19:00:00Z,26.5255,-82.0032,2.704,7.06,1111122 
SCCF RECON,ioos:station:SCCF:13:1,2016-03-11T20:00:00Z,26.5255,-82.0032,2.751,7.02,1111122 